This is the latest recevied weather packets stored in our database for station/object KI4NG. If no packets are shown the sender has not sent any weather packets the latest 10 day(s).
| Time | Temp. | Humidity | Pressure | Rain* | Wind** | Luminosity | Snow |
|---|---|---|---|---|---|---|---|
| 1777922273 | 23.89° C | 54% | 1013.6 hPa | 0 mm | - | 707 W/m² | - |
| 1777921970 | 23.89° C | 52% | 1013.7 hPa | 0 mm | - | 724 W/m² | - |
| 1777921665 | 23.89° C | 55% | 1013.9 hPa | 0 mm | - | 688 W/m² | - |
| 1777921362 | 23.89° C | 50% | 1013.7 hPa | 0 mm | - | 715 W/m² | - |
| 1777921058 | 23.89° C | 51% | 1013.5 hPa | 0 mm | - | 735 W/m² | - |
| 1777920755 | 23.89° C | 54% | 1013.8 hPa | 0 mm | - | 724 W/m² | - |
| 1777920451 | 23.89° C | 53% | 1013.9 hPa | 0 mm | - | 658 W/m² | - |
| 1777920147 | 23.33° C | 53% | 1013.7 hPa | 0 mm | - | 720 W/m² | - |
| 1777919843 | 23.89° C | 54% | 1013.9 hPa | 0 mm | - | 176 W/m² | - |
| 1777919540 | 23.89° C | 52% | 1013.9 hPa | 0 mm | - | 750 W/m² | - |
| 1777919239 | 23.89° C | 57% | 1014.1 hPa | 0 mm | - | 757 W/m² | - |
| 1777918935 | 23.89° C | 53% | 1014 hPa | 0 mm | - | 733 W/m² | - |
| 1777918633 | 23.33° C | 52% | 1014.3 hPa | 0 mm | - | 744 W/m² | - |
| 1777918330 | 23.33° C | 52% | 1014.4 hPa | 0 mm | - | 749 W/m² | - |
| 1777918029 | 23.33° C | 53% | 1014.5 hPa | 0 mm | - | 759 W/m² | - |
| 1777917728 | 22.78° C | 53% | 1014.6 hPa | 0 mm | - | 768 W/m² | - |
| 1777917424 | 22.78° C | 55% | 1014.5 hPa | 0 mm | - | 770 W/m² | - |
| 1777917121 | 23.33° C | 54% | 1014.1 hPa | 0 mm | - | 778 W/m² | - |
| 1777916819 | 22.78° C | 55% | 1014.6 hPa | 0 mm | - | 770 W/m² | - |
| 1777916516 | 22.78° C | 55% | 1014.5 hPa | 0 mm | - | 764 W/m² | - |
| 1777916213 | 22.22° C | 55% | 1014.5 hPa | 0 mm | - | 717 W/m² | - |
| 1777915910 | 22.22° C | 57% | 1014.7 hPa | 0 mm | - | 522 W/m² | - |
| 1777915607 | 21.67° C | 57% | 1014.7 hPa | 0 mm | - | 728 W/m² | - |
| 1777915303 | 21.67° C | 57% | 1014.8 hPa | 0 mm | - | 763 W/m² | - |
| 1777914999 | 22.22° C | 57% | 1014.9 hPa | 0 mm | - | 759 W/m² | - |
* Rain latest hour (hover to see other rain measurements)
** Current wind speed in m/s (hover to see current wind gust speed)